Starlink 4329

decayed
NORAD ID: 53087 Int'l Des: 2022-077 Owner: SPXS Country: US Constellation: starlink
LEOCIRCULARRETROGRADE
Group

About Starlink 4329

Description loading...

Altitude History

Altitude vs Time

uPlot chart will show altitude changes over time

Two-Line Element Set

1 53087U 22077AW 25244.16040980 .07783537 27397-5 21397-3 0 9994
2 53087 97.6392 77.8155 0009239 258.1052 101.9214 16.44910878173311
Epoch: Sep 1, 2025 • Age: 1798 hours

Current Status

Position data unavailable
Launch Date Jul 11, 2022
Age 3.3 years
Decay Date Sep 1, 2025
Type internet

Technical Details

Classification Payload
Mass 297.00 kg
Dry Mass 275.00 kg
Total Mass 297.00 kg
Length 0.20 m
Diameter 2.80 m
Span 9.00 m
Shape Box + pan
Manufacturer SPXS
Bus Type Starlink
Phase Status Reentered
Owner/State SPXS/US

Large Constellations

Loading constellations...